,,PA_Meas_PMT16A,,PR_Meas_QMR101_102,,RH_Meas_QMH101,,SR_Meas_QMS101,,TA_Meas_QMH101,,GenWind,,GenWind,
time,status,PA,status,PR,status,RH,status,SR,status,TA,status,DirAvg,status,SpdAvg,
2012-05-10, 00:00:04,VALID,919.245,VALID,0,VALID,96.0627,VALID,0.107441,VALID,21.299,VALID,137,VALID,0.580078,
2012-05-10, 00:01:04,VALID,919.256,VALID,0,VALID,96.055,VALID,0,VALID,21.2795,VALID,137,VALID,0.763672,
2012-05-10, 00:02:04,VALID,919.266,VALID,0,VALID,96.055,VALID,0,VALID,21.2795,VALID,137,VALID,0.614844,
2012-05-10, 00:03:04,VALID,919.28,VALID,0,VALID,96.0398,VALID,0,VALID,21.2616,VALID,137,VALID,0.531641,
2012-05-10, 00:04:04,VALID,919.334,VALID,0,VALID,96.055,VALID,0,VALID,21.2811,VALID,137,VALID,0.359766,
2012-05-10, 00:05:04,VALID,919.385,VALID,0,VALID,96.0627,VALID,0,VALID,21.2405,VALID,137,VALID,0.0515625,
2012-05-10, 00:06:04,VALID,919.359,VALID,0,VALID,96.055,VALID,0,VALID,21.2405,VALID,137,VALID,0,
2012-05-10, 00:07:04,VALID,919.426,VALID,0,VALID,96.0855,VALID,0,VALID,21.26,VALID,137,VALID,0,
2012-05-10, 00:08:04,VALID,919.44,VALID,0,VALID,96.0703,VALID,0,VALID,21.2795,VALID,137,VALID,0,
2012-05-10, 00:09:04,VALID,919.419,VALID,0,VALID,96.0398,VALID,0,VALID,21.299,VALID,137,VALID,0,
2012-05-10, 00:10:04,VALID,919.431,VALID,0,VALID,95.9864,VALID,0,VALID,21.3185,VALID,137,VALID,0,
2012-05-10, 00:11:04,VALID,919.49,VALID,0,VALID,95.8873,VALID,0,VALID,21.3591,VALID,137,VALID,0.231641,
2012-05-10, 00:12:04,VALID,919.499,VALID,0,VALID,95.8568,VALID,0,VALID,21.3575,VALID,137,VALID,0.120703,
2012-05-10, 00:13:04,VALID,919.465,VALID,0,VALID,95.834,VALID,0,VALID,21.3575,VALID,137,VALID,0.370703,
2012-05-10, 00:14:04,VALID,919.484,VALID,0,VALID,95.8111,VALID,0,VALID,21.3575,VALID,137,VALID,0.558203,
2012-05-10, 00:15:04,VALID,919.495,VALID,0,VALID,95.7882,VALID,0,VALID,21.3786,VALID,137,VALID,0.159766,
2012-05-10, 00:16:04,VALID,919.445,VALID,0,VALID,95.8111,VALID,0,VALID,21.3575,VALID,137,VALID,0.100391,
2012-05-10, 00:17:04,VALID,919.461,VALID,0,VALID,95.834,VALID,0,VALID,21.3965,VALID,137,VALID,0,
2012-05-10, 00:18:04,VALID,919.433,VALID,0,VALID,95.8416,VALID,0,VALID,21.3965,VALID,137,VALID,0,
2012-05-10, 00:19:04,VALID,919.384,VALID,0,VALID,95.8035,VALID,0,VALID,21.4177,VALID,137,VALID,0,
2012-05-10, 00:20:04,VALID,919.385,VALID,0,VALID,95.773,VALID,0,VALID,21.3965,VALID,137,VALID,0,
2012-05-10, 00:21:04,VALID,919.343,VALID,0,VALID,95.7806,VALID,0,VALID,21.3981,VALID,137,VALID,0,
2012-05-10, 00:22:04,VALID,919.32,VALID,0,VALID,95.7806,VALID,0,VALID,21.3786,VALID,137,VALID,0.00078125,
2012-05-10, 00:23:04,VALID,919.276,VALID,0,VALID,95.7577,VALID,0,VALID,21.338,VALID,137,VALID,0,
2012-05-10, 00:24:04,VALID,919.283,VALID,0,VALID,95.712,VALID,0,VALID,21.3575,VALID,137,VALID,0,
2012-05-10, 00:25:04,VALID,919.262,VALID,0,VALID,95.6586,VALID,0,VALID,21.3185,VALID,137,VALID,0,
2012-05-10, 00:26:04,VALID,919.262,VALID,0,VALID,95.6586,VALID,0,VALID,21.3591,VALID,137,VALID,0.222266,
2012-05-10, 00:27:04,VALID,919.218,VALID,0,VALID,95.6205,VALID,0,VALID,21.3575,VALID,137,VALID,0.0449219,
2012-05-10, 00:28:04,VALID,919.194,VALID,0,VALID,95.4833,VALID,0,VALID,21.299,VALID,137,VALID,0.546094,
2012-05-10, 00:29:04,VALID,919.152,VALID,0,VALID,95.3842,VALID,0,VALID,21.2795,VALID,137,VALID,0.665234,
2012-05-10, 00:30:04,VALID,919.135,VALID,0,VALID,95.3461,VALID,0,VALID,21.2616,VALID,137,VALID,0.397656,
2012-05-10, 00:31:04,VALID,919.13,VALID,0,VALID,95.3384,VALID,0,VALID,21.221,VALID,137,VALID,0.128906,
2012-05-10, 00:32:04,VALID,919.106,VALID,0,VALID,95.3537,VALID,0,VALID,21.221,VALID,137,VALID,0.0609375,
2012-05-10, 00:33:04,VALID,919.078,VALID,0,VALID,95.3308,VALID,0,VALID,21.2421,VALID,137,VALID,0.257813,
2012-05-10, 00:34:04,VALID,919.055,VALID,0,VALID,95.4147,VALID,0,VALID,21.2616,VALID,138,VALID,0.445313,
2012-05-10, 00:35:04,VALID,919.053,VALID,0,VALID,95.4147,VALID,0,VALID,21.3006,VALID,159,VALID,0.884766,
2012-05-10, 00:36:04,VALID,919.013,VALID,0,VALID,95.3766,VALID,0,VALID,21.26,VALID,163,VALID,0.615625,
2012-05-10, 00:37:04,VALID,918.98,VALID,0,VALID,95.4299,VALID,0,VALID,21.3006,VALID,163,VALID,0.6375,
2012-05-10, 00:38:04,VALID,918.978,VALID,0,VALID,95.4147,VALID,0,VALID,21.26,VALID,163,VALID,0.486719,
2012-05-10, 00:39:04,VALID,918.969,VALID,0,VALID,95.3613,VALID,0,VALID,21.2811,VALID,163,VALID,0.588672,
2012-05-10, 00:40:04,VALID,918.984,VALID,0,VALID,95.4223,VALID,0,VALID,21.26,VALID,163,VALID,0.995703,
2012-05-10, 00:41:04,VALID,918.955,VALID,0,VALID,95.4604,VALID,0,VALID,21.2811,VALID,163,VALID,1.16953,
2012-05-10, 00:42:04,VALID,918.949,VALID,0,VALID,95.4985,VALID,0.107441,VALID,21.2405,VALID,163,VALID,1.09023,
2012-05-10, 00:43:04,VALID,918.868,VALID,0,VALID,95.5519,VALID,0,VALID,21.2421,VALID,162,VALID,1.1332,
2012-05-10, 00:44:04,VALID,918.874,VALID,0,VALID,95.6281,VALID,0,VALID,21.2015,VALID,147,VALID,0.692969,
2012-05-10, 00:45:04,VALID,918.817,VALID,0,VALID,95.6662,VALID,0,VALID,21.1819,VALID,147,VALID,0.777734,
2012-05-10, 00:46:04,VALID,918.801,VALID,0,VALID,95.7272,VALID,0,VALID,21.1819,VALID,140,VALID,0.827734,
2012-05-10, 00:47:04,VALID,918.814,VALID,0,VALID,95.773,VALID,0,VALID,21.1819,VALID,162,VALID,1.00039,
2012-05-10, 00:48:04,VALID,918.772,VALID,0,VALID,95.8645,VALID,0,VALID,21.2031,VALID,162,VALID,1.24453,
2012-05-10, 00:49:04,VALID,918.755,VALID,0,VALID,95.9559,VALID,0,VALID,21.2226,VALID,146,VALID,1.11133,
2012-05-10, 00:50:04,VALID,918.727,VALID,0,VALID,96.0398,VALID,0.107441,VALID,21.2031,VALID,160,VALID,1.03047,
2012-05-10, 00:51:04,VALID,918.763,VALID,0,VALID,96.0855,VALID,0,VALID,21.2031,VALID,132,VALID,0.646094,
2012-05-10, 00:52:04,VALID,918.762,VALID,0,VALID,96.1084,VALID,0,VALID,21.2031,VALID,152,VALID,0.873438,
2012-05-10, 00:53:04,VALID,918.74,VALID,0,VALID,96.1313,VALID,0,VALID,21.1836,VALID,165,VALID,1.48242,
2012-05-10, 00:54:04,VALID,918.743,VALID,0,VALID,96.1541,VALID,0,VALID,21.1624,VALID,176,VALID,1.47969,
2012-05-10, 00:55:04,VALID,918.728,VALID,0,VALID,96.2151,VALID,0,VALID,21.2031,VALID,164,VALID,1.63164,
2012-05-10, 00:56:04,VALID,918.718,VALID,0,VALID,96.177,VALID,0,VALID,21.1836,VALID,165,VALID,1.5125,
2012-05-10, 00:57:04,VALID,918.678,VALID,0,VALID,96.1999,VALID,0,VALID,21.1836,VALID,177,VALID,0.996094,
2012-05-10, 00:58:04,VALID,918.67,VALID,0,VALID,96.238,VALID,0,VALID,21.2031,VALID,165,VALID,1.50039,
2012-05-10, 00:59:04,VALID,918.657,VALID,0,VALID,96.2151,VALID,0,VALID,21.2226,VALID,157,VALID,0.729688,
2012-05-10, 01:00:04,VALID,918.619,VALID,0,VALID,96.1999,VALID,0,VALID,21.2031,VALID,169,VALID,1.15937,
2012-05-10, 01:01:04,VALID,918.624,VALID,0,VALID,96.1846,VALID,0,VALID,21.2031,VALID,156,VALID,1.68164,
2012-05-10, 01:02:04,VALID,918.596,VALID,0,VALID,96.1999,VALID,0,VALID,21.2031,VALID,161,VALID,1.41953,
2012-05-10, 01:03:04,VALID,918.576,VALID,0,VALID,96.177,VALID,0,VALID,21.2031,VALID,174,VALID,1.40859,
2012-05-10, 01:04:04,VALID,918.587,VALID,0,VALID,96.1618,VALID,0,VALID,21.2031,VALID,162,VALID,1.18125,
2012-05-10, 01:05:04,VALID,918.551,VALID,0,VALID,96.1236,VALID,0,VALID,21.1836,VALID,151,VALID,0.783984,
2012-05-10, 01:06:04,VALID,918.551,VALID,0,VALID,96.1389,VALID,0,VALID,21.164,VALID,139,VALID,1.39102,
2012-05-10, 01:07:04,VALID,918.556,VALID,0,VALID,96.1236,VALID,0,VALID,21.2031,VALID,152,VALID,1.00469,
2012-05-10, 01:08:04,VALID,918.566,VALID,0,VALID,96.0932,VALID,0,VALID,21.2031,VALID,160,VALID,1.37773,
2012-05-10, 01:09:04,VALID,918.561,VALID,0,VALID,96.0322,VALID,0,VALID,21.1819,VALID,170,VALID,1.24922,
2012-05-10, 01:10:04,VALID,918.544,VALID,0,VALID,95.9712,VALID,0,VALID,21.2226,VALID,165,VALID,0.648828,
2012-05-10, 01:11:04,VALID,918.562,VALID,0,VALID,95.9026,VALID,0,VALID,21.2226,VALID,151,VALID,1.02734,
2012-05-10, 01:12:04,VALID,918.522,VALID,0,VALID,95.8416,VALID,0,VALID,21.2421,VALID,137,VALID,0.365625,
2012-05-10, 01:13:04,VALID,918.547,VALID,0,VALID,95.7501,VALID,0,VALID,21.2421,VALID,165,VALID,0.622656,
2012-05-10, 01:14:04,VALID,918.507,VALID,0,VALID,95.7044,VALID,0,VALID,21.2226,VALID,174,VALID,0.529688,
2012-05-10, 01:15:04,VALID,918.509,VALID,0,VALID,95.6129,VALID,0,VALID,21.2226,VALID,174,VALID,0.703516,
2012-05-10, 01:16:04,VALID,918.438,VALID,0,VALID,95.5367,VALID,0,VALID,21.2421,VALID,161,VALID,0.728516,
2012-05-10, 01:17:04,VALID,918.445,VALID,0,VALID,95.4604,VALID,0,VALID,21.2616,VALID,161,VALID,0.278516,
2012-05-10, 01:18:04,VALID,918.399,VALID,0,VALID,95.3461,VALID,0,VALID,21.2616,VALID,157,VALID,1.19609,
2012-05-10, 01:19:04,VALID,918.384,VALID,0,VALID,95.2927,VALID,0,VALID,21.2616,VALID,157,VALID,0.640625,
2012-05-10, 01:20:04,VALID,918.338,VALID,0,VALID,95.1783,VALID,0,VALID,21.2421,VALID,173,VALID,0.96875,
2012-05-10, 01:21:04,VALID,918.331,VALID,0,VALID,95.0564,VALID,0,VALID,21.2421,VALID,169,VALID,1.01094,
2012-05-10, 01:22:04,VALID,918.35,VALID,0,VALID,95.0106,VALID,0,VALID,21.2421,VALID,169,VALID,0.342187,
2012-05-10, 01:23:04,VALID,918.344,VALID,0,VALID,94.9801,VALID,0,VALID,21.2421,VALID,169,VALID,0.989453,
2012-05-10, 01:24:04,VALID,918.358,VALID,0,VALID,94.9496,VALID,0,VALID,21.2226,VALID,169,VALID,0.541406,
2012-05-10, 01:25:04,VALID,918.349,VALID,0,VALID,94.9115,VALID,0,VALID,21.2226,VALID,169,VALID,0.350391,
2012-05-10, 01:26:04,VALID,918.37,VALID,0,VALID,94.881,VALID,0,VALID,21.2226,VALID,169,VALID,0.283203,
2012-05-10, 01:27:04,VALID,918.383,VALID,0,VALID,94.8505,VALID,0,VALID,21.2226,VALID,169,VALID,0,
2012-05-10, 01:28:04,VALID,918.37,VALID,0,VALID,94.7743,VALID,0,VALID,21.2226,VALID,169,VALID,0.00429688,
2012-05-10, 01:29:04,VALID,918.379,VALID,0,VALID,94.7667,VALID,0,VALID,21.2226,VALID,169,VALID,0,
2012-05-10, 01:30:04,VALID,918.389,VALID,0,VALID,94.7057,VALID,0,VALID,21.2031,VALID,169,VALID,0,
2012-05-10, 01:31:04,VALID,918.378,VALID,0,VALID,94.7133,VALID,0,VALID,21.2031,VALID,169,VALID,0,
2012-05-10, 01:32:04,VALID,918.38,VALID,0,VALID,94.5532,VALID,0,VALID,21.164,VALID,169,VALID,0,
2012-05-10, 01:33:04,VALID,918.359,VALID,0,VALID,94.3626,VALID,0,VALID,21.125,VALID,169,VALID,0,
2012-05-10, 01:34:04,VALID,918.352,VALID,0,VALID,94.4236,VALID,0,VALID,21.086,VALID,169,VALID,0,
2012-05-10, 01:35:04,VALID,918.282,VALID,0,VALID,94.6447,VALID,0,VALID,21.0876,VALID,169,VALID,0,
2012-05-10, 01:36:04,VALID,918.288,VALID,0,VALID,94.7057,VALID,0,VALID,21.0275,VALID,169,VALID,0,
2012-05-10, 01:37:04,VALID,918.249,VALID,0,VALID,94.7819,VALID,0,VALID,20.9885,VALID,169,VALID,0,
2012-05-10, 01:38:04,VALID,918.253,VALID,0,VALID,94.8048,VALID,0,VALID,20.93,VALID,169,VALID,0,
2012-05-10, 01:39:04,VALID,918.245,VALID,0,VALID,94.9725,VALID,0,VALID,20.891,VALID,169,VALID,0,
2012-05-10, 01:40:04,VALID,918.205,VALID,0,VALID,95.0869,VALID,0,VALID,20.8129,VALID,116,VALID,0,
2012-05-10, 01:41:04,VALID,918.208,VALID,0,VALID,95.2775,VALID,0,VALID,20.7934,VALID,97,VALID,0,
2012-05-10, 01:42:04,VALID,918.206,VALID,0,VALID,95.4375,VALID,0,VALID,20.7544,VALID,97,VALID,0.767578,
2012-05-10, 01:43:04,VALID,918.148,VALID,0,VALID,95.5824,VALID,0,VALID,20.7154,VALID,97,VALID,0.585547,
2012-05-10, 01:44:04,VALID,918.137,VALID,0,VALID,95.7196,VALID,0,VALID,20.6959,VALID,108,VALID,0.957812,
2012-05-10, 01:45:04,VALID,918.12,VALID,0,VALID,95.9178,VALID,0,VALID,20.7349,VALID,129,VALID,1.58359,
2012-05-10, 01:46:04,VALID,918.094,VALID,0,VALID,95.9864,VALID,0,VALID,20.7349,VALID,142,VALID,0.503906,
2012-05-10, 01:47:04,VALID,918.089,VALID,0,VALID,96.0627,VALID,0,VALID,20.7349,VALID,142,VALID,0.664844,
2012-05-10, 01:48:04,VALID,918.063,VALID,0,VALID,96.1465,VALID,0,VALID,20.8129,VALID,119,VALID,1.20586,
2012-05-10, 01:49:04,VALID,918.004,VALID,0,VALID,96.1236,VALID,0,VALID,20.8129,VALID,136,VALID,1.31484,
2012-05-10, 01:50:04,VALID,918.017,VALID,0,VALID,96.0932,VALID,0,VALID,20.8519,VALID,135,VALID,1.98203,
2012-05-10, 01:51:04,VALID,917.968,VALID,0,VALID,96.0855,VALID,0,VALID,20.8714,VALID,128,VALID,2.05508,
2012-05-10, 01:52:04,VALID,917.911,VALID,0,VALID,95.9941,VALID,0,VALID,20.8714,VALID,130,VALID,2.43945,
2012-05-10, 01:53:04,VALID,917.89,VALID,0,VALID,95.9407,VALID,0,VALID,20.8519,VALID,127,VALID,1.55391,
2012-05-10, 01:54:04,VALID,917.836,VALID,0,VALID,95.895,VALID,0,VALID,20.8519,VALID,139,VALID,2.34414,
2012-05-10, 01:55:04,VALID,917.853,VALID,0,VALID,95.8797,VALID,0,VALID,20.8519,VALID,148,VALID,1.87656,
2012-05-10, 01:56:04,VALID,917.849,VALID,0,VALID,95.7425,VALID,0,VALID,20.8714,VALID,142,VALID,1.70469,
2012-05-10, 01:57:04,VALID,917.846,VALID,0,VALID,95.4985,VALID,0,VALID,20.8714,VALID,130,VALID,2.85,
2012-05-10, 01:58:04,VALID,917.85,VALID,0,VALID,95.1326,VALID,0,VALID,20.9089,VALID,134,VALID,1.56719,
2012-05-10, 01:59:04,VALID,917.867,VALID,0,VALID,94.6447,VALID,0,VALID,20.9901,VALID,130,VALID,2.84297,
2012-05-10, 02:00:04,VALID,917.864,VALID,0,VALID,94.1111,VALID,0,VALID,21.008,VALID,133,VALID,3.01094,
2012-05-10, 02:01:04,VALID,917.878,VALID,0,VALID,93.5241,VALID,0,VALID,21.0275,VALID,133,VALID,2.34336,
2012-05-10, 02:02:04,VALID,917.906,VALID,0,VALID,92.655,VALID,0,VALID,21.125,VALID,115,VALID,1.3,
2012-05-10, 02:03:04,VALID,917.907,VALID,0,VALID,92.2281,VALID,0,VALID,21.164,VALID,127,VALID,2.13984,
2012-05-10, 02:04:04,VALID,917.889,VALID,0,VALID,92.2891,VALID,0,VALID,21.1852,VALID,141,VALID,1.7668,
2012-05-10, 02:05:04,VALID,917.893,VALID,0,VALID,92.3729,VALID,0,VALID,21.1445,VALID,126,VALID,1.49844,
2012-05-10, 02:06:04,VALID,917.876,VALID,0,VALID,92.8075,VALID,0,VALID,21.1445,VALID,124,VALID,1.63906,
2012-05-10, 02:07:04,VALID,917.882,VALID,0,VALID,93.1124,VALID,0,VALID,21.1071,VALID,124,VALID,1.58594,
2012-05-10, 02:08:04,VALID,917.888,VALID,0,VALID,93.303,VALID,0,VALID,21.047,VALID,120,VALID,1.44805,
2012-05-10, 02:09:04,VALID,917.891,VALID,0,VALID,93.2725,VALID,0,VALID,21.008,VALID,128,VALID,1.55469,
2012-05-10, 02:10:04,VALID,917.888,VALID,0,VALID,93.3564,VALID,0,VALID,21.0275,VALID,139,VALID,1.77891,
2012-05-10, 02:11:04,VALID,917.86,VALID,0,VALID,93.4173,VALID,0,VALID,21.0275,VALID,145,VALID,1.55977,
2012-05-10, 02:12:04,VALID,917.881,VALID,0,VALID,93.4478,VALID,0,VALID,21.047,VALID,138,VALID,1.52578,
2012-05-10, 02:13:04,VALID,917.844,VALID,0,VALID,93.5469,VALID,0,VALID,21.086,VALID,144,VALID,1.58281,
2012-05-10, 02:14:04,VALID,917.861,VALID,0,VALID,93.5164,VALID,0,VALID,21.086,VALID,124,VALID,1.73203,
2012-05-10, 02:15:04,VALID,917.848,VALID,0,VALID,93.5317,VALID,0,VALID,21.1071,VALID,132,VALID,2.05195,
2012-05-10, 02:16:04,VALID,917.83,VALID,0,VALID,93.5012,VALID,0,VALID,21.1055,VALID,135,VALID,1.50273,
2012-05-10, 02:17:04,VALID,917.859,VALID,0,VALID,93.3945,VALID,0,VALID,21.125,VALID,125,VALID,1.58047,
2012-05-10, 02:18:04,VALID,917.799,VALID,0,VALID,93.1734,VALID,0,VALID,21.1055,VALID,135,VALID,1.28008,
2012-05-10, 02:19:04,VALID,917.771,VALID,0,VALID,92.9599,VALID,0,VALID,21.1234,VALID,118,VALID,1.7168,
2012-05-10, 02:20:04,VALID,917.769,VALID,0,VALID,92.7998,VALID,0,VALID,21.164,VALID,128,VALID,1.84766,
2012-05-10, 02:21:04,VALID,917.783,VALID,0,VALID,92.6093,VALID,0,VALID,21.1836,VALID,128,VALID,1.5125,
2012-05-10, 02:22:04,VALID,917.723,VALID,0,VALID,92.4263,VALID,0,VALID,21.2031,VALID,122,VALID,2.15352,
2012-05-10, 02:23:04,VALID,917.76,VALID,0,VALID,92.1366,VALID,0,VALID,21.2226,VALID,127,VALID,1.9668,
2012-05-10, 02:24:04,VALID,917.73,VALID,0,VALID,91.8012,VALID,0,VALID,21.3006,VALID,135,VALID,1.74141,
2012-05-10, 02:25:04,VALID,917.73,VALID,0,VALID,91.5725,VALID,0,VALID,21.3006,VALID,121,VALID,1.67266,
2012-05-10, 02:26:04,VALID,917.709,VALID,0,VALID,91.4505,VALID,0,VALID,21.3201,VALID,129,VALID,2.30859,
2012-05-10, 02:27:04,VALID,917.692,VALID,0,VALID,91.3209,VALID,0,VALID,21.3591,VALID,130,VALID,2.04102,
2012-05-10, 02:28:04,VALID,917.676,VALID,0,VALID,91.077,VALID,0,VALID,21.3981,VALID,137,VALID,2.11016,
2012-05-10, 02:29:04,VALID,917.659,VALID,0,VALID,90.9473,VALID,0,VALID,21.4177,VALID,128,VALID,1.46875,
2012-05-10, 02:30:04,VALID,917.68,VALID,0,VALID,90.9245,VALID,0,VALID,21.4177,VALID,97,VALID,1.11719,
2012-05-10, 02:31:04,VALID,917.686,VALID,0,VALID,91.0312,VALID,0,VALID,21.3786,VALID,116,VALID,1.22539,
2012-05-10, 02:32:04,VALID,917.676,VALID,0,VALID,91.1684,VALID,0,VALID,21.3803,VALID,117,VALID,1.71563,
2012-05-10, 02:33:04,VALID,917.65,VALID,0,VALID,91.0846,VALID,0,VALID,21.3981,VALID,147,VALID,2.94414,
2012-05-10, 02:34:04,VALID,917.657,VALID,0,VALID,91.016,VALID,0,VALID,21.3981,VALID,143,VALID,1.16445,
2012-05-10, 02:35:04,VALID,917.641,VALID,0,VALID,90.9397,VALID,0,VALID,21.4177,VALID,133,VALID,2.62773,
2012-05-10, 02:36:04,VALID,917.665,VALID,0,VALID,90.8864,VALID,0,VALID,21.4372,VALID,131,VALID,1.50742,
2012-05-10, 02:37:04,VALID,917.651,VALID,0,VALID,90.6424,VALID,0,VALID,21.4567,VALID,126,VALID,2.06914,
2012-05-10, 02:38:04,VALID,917.616,VALID,0,VALID,90.4442,VALID,0,VALID,21.4762,VALID,137,VALID,1.51641,
2012-05-10, 02:39:04,VALID,917.639,VALID,0,VALID,90.2917,VALID,0,VALID,21.5347,VALID,125,VALID,1.81367,
2012-05-10, 02:40:04,VALID,917.614,VALID,0,VALID,90.1774,VALID,0,VALID,21.5347,VALID,129,VALID,1.57461,
2012-05-10, 02:41:04,VALID,917.598,VALID,0,VALID,90.1545,VALID,0,VALID,21.4941,VALID,95,VALID,1.23008,
2012-05-10, 02:42:04,VALID,917.586,VALID,0,VALID,90.2689,VALID,0,VALID,21.4957,VALID,162,VALID,0.958203,
2012-05-10, 02:43:04,VALID,917.56,VALID,0,VALID,90.3299,VALID,0,VALID,21.4957,VALID,142,VALID,0.859375,
2012-05-10, 02:44:04,VALID,917.537,VALID,0,VALID,90.368,VALID,0,VALID,21.4762,VALID,129,VALID,1.13984,
2012-05-10, 02:45:04,VALID,917.506,VALID,0,VALID,90.3527,VALID,0,VALID,21.4746,VALID,150,VALID,1.44766,
2012-05-10, 02:46:04,VALID,917.484,VALID,0,VALID,90.4823,VALID,0,VALID,21.4762,VALID,144,VALID,0.61875,
2012-05-10, 02:47:04,VALID,917.489,VALID,0,VALID,90.4976,VALID,0,VALID,21.4762,VALID,127,VALID,0.380078,
2012-05-10, 02:48:04,VALID,917.466,VALID,0,VALID,90.5509,VALID,0,VALID,21.4762,VALID,178,VALID,1.1582,
2012-05-10, 02:49:04,VALID,917.478,VALID,0,VALID,90.5891,VALID,0,VALID,21.4762,VALID,163,VALID,1.22891,
2012-05-10, 02:50:04,VALID,917.494,VALID,0,VALID,90.7339,VALID,0,VALID,21.4567,VALID,165,VALID,0.242188,
2012-05-10, 02:51:04,VALID,917.493,VALID,0,VALID,90.8406,VALID,0,VALID,21.4372,VALID,144,VALID,0.930859,
2012-05-10, 02:52:04,VALID,917.512,VALID,0,VALID,91.0693,VALID,0.107441,VALID,21.3786,VALID,141,VALID,0.903906,
2012-05-10, 02:53:04,VALID,917.508,VALID,0,VALID,91.3133,VALID,0,VALID,21.299,VALID,167,VALID,1.14648,
2012-05-10, 02:54:04,VALID,917.488,VALID,0,VALID,91.3971,VALID,0,VALID,21.3201,VALID,136,VALID,1.28242,
2012-05-10, 02:55:04,VALID,917.488,VALID,0,VALID,91.4352,VALID,0,VALID,21.3006,VALID,161,VALID,1.39531,
2012-05-10, 02:56:04,VALID,917.454,VALID,0,VALID,91.42,VALID,0,VALID,21.2795,VALID,141,VALID,1.03125,
2012-05-10, 02:57:04,VALID,917.443,VALID,0,VALID,91.2294,VALID,0,VALID,21.3201,VALID,139,VALID,0.794922,
2012-05-10, 02:58:04,VALID,917.441,VALID,0,VALID,91.1913,VALID,0,VALID,21.3201,VALID,139,VALID,0.370313,
2012-05-10, 02:59:04,VALID,917.431,VALID,0,VALID,91.237,VALID,0,VALID,21.3006,VALID,140,VALID,0.347266,
2012-05-10, 03:00:04,VALID,917.429,VALID,0,VALID,91.42,VALID,0,VALID,21.3006,VALID,171,VALID,0.705469,
2012-05-10, 03:01:04,VALID,917.423,VALID,0,VALID,91.5725,VALID,0,VALID,21.3006,VALID,171,VALID,0.375391,
2012-05-10, 03:02:04,VALID,917.43,VALID,0,VALID,91.6106,VALID,0,VALID,21.3217,VALID,171,VALID,0.147656,
2012-05-10, 03:03:04,VALID,917.433,VALID,0,VALID,91.6868,VALID,0,VALID,21.2811,VALID,167,VALID,0.867578,
2012-05-10, 03:04:04,VALID,917.446,VALID,0,VALID,92.0985,VALID,0,VALID,21.2421,VALID,167,VALID,1.0875,
2012-05-10, 03:05:04,VALID,917.427,VALID,0,VALID,92.2586,VALID,0,VALID,21.2616,VALID,167,VALID,0.194141,
2012-05-10, 03:06:04,VALID,917.461,VALID,0,VALID,92.3043,VALID,0,VALID,21.2421,VALID,167,VALID,0.136328,
2012-05-10, 03:07:04,VALID,917.484,VALID,0,VALID,92.3348,VALID,0,VALID,21.2421,VALID,167,VALID,0.0265625,
2012-05-10, 03:08:04,VALID,917.545,VALID,0,VALID,92.3501,VALID,0,VALID,21.2031,VALID,167,VALID,0.827344,
2012-05-10, 03:09:04,VALID,917.527,VALID,0,VALID,92.6321,VALID,0,VALID,21.1836,VALID,167,VALID,0.6625,
2012-05-10, 03:10:04,VALID,917.558,VALID,0,VALID,92.7465,VALID,0,VALID,21.164,VALID,167,VALID,0.327734,
2012-05-10, 03:11:04,VALID,917.567,VALID,0,VALID,92.8456,VALID,0,VALID,21.164,VALID,167,VALID,0.771875,
2012-05-10, 03:12:04,VALID,917.559,VALID,0,VALID,92.9676,VALID,0,VALID,21.1445,VALID,167,VALID,0.0296875,
2012-05-10, 03:13:04,VALID,917.557,VALID,0,VALID,93.0895,VALID,0,VALID,21.1445,VALID,167,VALID,0.896484,
2012-05-10, 03:14:04,VALID,917.54,VALID,0,VALID,93.2039,VALID,0,VALID,21.1039,VALID,167,VALID,0.667969,
2012-05-10, 03:15:04,VALID,917.536,VALID,0,VALID,93.3182,VALID,0,VALID,21.125,VALID,167,VALID,0.301562,
2012-05-10, 03:16:04,VALID,917.539,VALID,0,VALID,93.3182,VALID,0.107441,VALID,21.1055,VALID,167,VALID,0.540625,
2012-05-10, 03:17:04,VALID,917.537,VALID,0,VALID,93.4097,VALID,0,VALID,21.086,VALID,167,VALID,0.936719,
2012-05-10, 03:18:04,VALID,917.552,VALID,0,VALID,93.6079,VALID,0,VALID,21.086,VALID,167,VALID,0.875,
2012-05-10, 03:19:04,VALID,917.517,VALID,0,VALID,93.7451,VALID,0,VALID,21.1055,VALID,167,VALID,0.464453,
2012-05-10, 03:20:04,VALID,917.51,VALID,0,VALID,93.7528,VALID,0,VALID,21.1055,VALID,176,VALID,1.05586,
2012-05-10, 03:21:04,VALID,917.527,VALID,0,VALID,93.7604,VALID,0,VALID,21.1055,VALID,168,VALID,1.23672,
2012-05-10, 03:22:04,VALID,917.504,VALID,0,VALID,93.7909,VALID,0,VALID,21.086,VALID,177,VALID,1.07813,
2012-05-10, 03:23:04,VALID,917.511,VALID,0,VALID,93.7985,VALID,0,VALID,21.1055,VALID,153,VALID,1.17266,
2012-05-10, 03:24:04,VALID,917.537,VALID,0,VALID,93.8519,VALID,0,VALID,21.086,VALID,170,VALID,0.851172,
2012-05-10, 03:25:04,VALID,917.552,VALID,0,VALID,93.8824,VALID,0,VALID,21.1055,VALID,170,VALID,0.84375,
2012-05-10, 03:26:04,VALID,917.536,VALID,0,VALID,93.9129,VALID,0,VALID,21.086,VALID,190,VALID,1.74648,
2012-05-10, 03:27:04,VALID,917.515,VALID,0,VALID,93.9129,VALID,0,VALID,21.1055,VALID,173,VALID,0.642187,
2012-05-10, 03:28:04,VALID,917.502,VALID,0,VALID,93.9205,VALID,0,VALID,21.086,VALID,183,VALID,1.58398,
2012-05-10, 03:29:04,VALID,917.524,VALID,0,VALID,93.9205,VALID,0,VALID,21.1055,VALID,176,VALID,0.999609,
2012-05-10, 03:30:04,VALID,917.526,VALID,0,VALID,93.9052,VALID,0,VALID,21.1055,VALID,180,VALID,1.05508,
2012-05-10, 03:31:04,VALID,917.514,VALID,0,VALID,93.8747,VALID,0,VALID,21.1055,VALID,171,VALID,1.35273,
2012-05-10, 03:32:04,VALID,917.494,VALID,0,VALID,93.8671,VALID,0,VALID,21.1055,VALID,157,VALID,1.24766,
2012-05-10, 03:33:04,VALID,917.505,VALID,0,VALID,93.9129,VALID,0,VALID,21.086,VALID,174,VALID,1.09023,
2012-05-10, 03:34:04,VALID,917.482,VALID,0,VALID,93.951,VALID,0,VALID,21.1071,VALID,141,VALID,1.28281,
2012-05-10, 03:35:04,VALID,917.487,VALID,0,VALID,93.9891,VALID,0,VALID,21.086,VALID,165,VALID,1.04414,
2012-05-10, 03:36:04,VALID,917.468,VALID,0,VALID,94.0043,VALID,0,VALID,21.047,VALID,165,VALID,0.873828,
2012-05-10, 03:37:04,VALID,917.409,VALID,0,VALID,93.9891,VALID,0,VALID,21.047,VALID,170,VALID,1.0125,
2012-05-10, 03:38:04,VALID,917.44,VALID,0,VALID,93.9891,VALID,0,VALID,21.0665,VALID,167,VALID,1.46367,
2012-05-10, 03:39:04,VALID,917.414,VALID,0,VALID,93.9586,VALID,0,VALID,21.0665,VALID,165,VALID,0.814844,
2012-05-10, 03:40:04,VALID,917.409,VALID,0,VALID,93.8824,VALID,0,VALID,21.047,VALID,164,VALID,1.27344,
2012-05-10, 03:41:04,VALID,917.404,VALID,0,VALID,93.8747,VALID,0,VALID,21.047,VALID,164,VALID,0.642187,
2012-05-10, 03:42:04,VALID,917.381,VALID,0,VALID,93.9052,VALID,0,VALID,21.047,VALID,192,VALID,0.9375,
2012-05-10, 03:43:04,VALID,917.369,VALID,0,VALID,93.9052,VALID,0,VALID,21.047,VALID,187,VALID,0.712891,
2012-05-10, 03:44:04,VALID,917.38,VALID,0,VALID,93.89,VALID,0,VALID,21.047,VALID,168,VALID,0.772656,
2012-05-10, 03:45:04,VALID,917.418,VALID,0,VALID,93.8671,VALID,0,VALID,21.047,VALID,168,VALID,0.274219,
2012-05-10, 03:46:04,VALID,917.408,VALID,0,VALID,93.8976,VALID,0,VALID,21.047,VALID,169,VALID,0.425781,
2012-05-10, 03:47:04,VALID,917.433,VALID,0,VALID,93.9205,VALID,0,VALID,21.047,VALID,169,VALID,0.665625,